Location: Newark
(48.8833°N, 0.9236°W)
Time: 21:36:04
(UTC+00:00)

Tiros 1 despin weight - Pass Details

Date: 20 November 2019
Orbit: 594 x 642 km, 48.2° (Epoch: 12 December)

Event Time Altitude Azimuth Distance (km) Brightness Sun altitude
Rises 19:34:25 0° 276° (W) 2,860 ? -31.9°
Reaches altitude 10° 19:38:21 10° 242° (WSW) 1,963 ? -32.6°
Maximum altitude 19:39:41 11° 224° (SW) 1,888 ? -32.8°
Enters shadow 19:40:10 11° 218° (SW) 1,899 ? -32.8°
Drops below altitude 10° 19:41:01 10° 207° (SSW) 1,969 - -33.0°
Sets 19:45:00 0° 173° (S) 2,883 - -33.6°
